Terminal Aerodrome Forecast
Issued by NWS Charleston, WV

Current Version | Previous Version | Graphics & Text | Print | Product List | Glossary On
Versions: 1 2 3 4 5 6 7 8 9 10 11 12 13 14 15 16 17 18 19 20 21 22 23 24 25
000
FTUS41 KRLX 310523
TAFHTS
TAF
KHTS 310523Z 3106/0106 00000KT P6SM SCT110
     FM310800 00000KT 6SM BR SCT100
     FM311100 00000KT P6SM BKN060
     FM010100 00000KT P6SM SCT050=

USA.gov is the U.S. government's official web portal to all federal, state and local government web resources and services.